This demonstration page uses our WeatherBlox Daily Observations layout. Learn more.

Left ArrowRight Arrow

39.01783, -85.05884

Hourly Observations for July 19, 2020

Temp ( °F °C ) Dew Point ( °F °C ) Humidity (%) Winds ( mph kmh ) Pressure ( in mb ) Visibility ( mi km ) Precip ( " mm )
12:52 am 00:52 Partly Cloudy 78 25.6 71 21.7 79 79 SSW 6 9 29.99 1016 10 16 0.00 0.00
1:52 am 01:52 Mostly Clear 79 26.1 70 21.1 74 74 SSW 7 11 29.98 1015 10 16 0.00 0.00
2:52 am 02:52 Clear 76 24.4 70 21.1 82 82 SSW 8 13 29.97 1015 10 16 0.00 0.00
3:52 am 03:52 Clear 75 23.9 70 21.1 84 84 SSW 7 11 29.96 1015 10 16 0.00 0.00
4:52 am 04:52 Clear 75 23.9 70 21.1 84 84 S 7 11 29.96 1015 10 16 0.00 0.00
5:52 am 05:52 Clear 74 23.3 70 21.1 88 88 SSW 6 9 29.97 1015 10 16 0.00 0.00
6:52 am 06:52 Mostly Sunny 74 23.3 70 21.1 88 88 SSW 6 9 29.98 1015 9 14 0.00 0.00
7:52 am 07:52 Mostly Sunny 77 25 72 22.2 85 85 SSW 8 13 29.98 1015 10 16 0.00 0.00
8:52 am 08:52 Sunny 81 27.2 72 22.2 74 74 SW 10 17 29.97 1015 10 16 0.00 0.00
9:52 am 09:52 Sunny 84 28.9 72 22.2 67 67 SW 15 24 29.97 1015 10 16 0.00 0.00
10:52 am 10:52 Mostly Sunny 87 30.6 72 22.2 61 61 WSW 16 26 29.95 1014 10 16 0.00 0.00
11:52 am 11:52 Mostly Sunny 89 31.7 69 20.6 52 52 WSW 20 31 29.97 1015 10 16 0.00 0.00
12:52 pm 12:52 Partly Cloudy 91 32.8 71 21.7 52 52 W 17 28 29.98 1015 10 16 0.00 0.00
1:52 pm 13:52 Mostly Cloudy 91 32.8 70 21.1 50 50 SW 15 24 29.96 1014 10 16 0.00 0.00
2:52 pm 14:52 Mostly Cloudy 93 33.9 71 21.7 49 49 WSW 15 24 29.95 1014 10 16 0.00 0.00
3:52 pm 15:52 Mostly Cloudy 94 34.4 71 21.7 48 48 WSW 13 20 29.94 1014 10 16 0.00 0.00
4:52 pm 16:52 Mostly Cloudy 92 33.3 70 21.1 49 49 SW 10 17 29.91 1013 10 16 0.00 0.00
5:15 pm 17:15 Mostly Cloudy with Nearby Thunderstorms 91 32.8 71 21.7 52 52 W 10 17 29.90 1012 10 16 0.00 0.00
5:36 pm 17:36 Cloudy with Strong Thunderstorms 76 24.4 70 21.1 82 82 N 32 52 29.96 1015 3 5 0.00 0.00
5:52 pm 17:52 Cloudy with Strong Thunderstorms 74 23.3 71 21.7 91 91 NNW 17 28 29.99 1016 2 3 0.13 3.30
6:09 pm 18:09 Cloudy with Thunderstorms 73 22.8 71 21.7 94 94 N 12 19 29.97 1015 2 3 0.54 13.72
6:21 pm 18:21 Mostly Cloudy with Thunderstorms 75 23.9 72 22.2 90 90 NE 5 7 29.97 1015 8 13 0.58 14.73
6:30 pm 18:30 Mostly Cloudy 75 23.9 71 21.7 88 88 SW 5 7 29.98 1015 10 16 0.58 14.73
6:37 pm 18:37 Mostly Cloudy with Nearby Thunderstorms 74 23.3 71 21.7 91 91 SSW 7 11 29.97 1015 10 16 0.58 14.73
6:52 pm 18:52 Mostly Cloudy with Light Rain 74 23.3 71 21.7 91 91 S 10 17 29.95 1014 7 11 0.58 14.73
7:52 pm 19:52 Mostly Cloudy 75 23.9 71 21.7 88 88 WSW 3 6 29.93 1014 10 16 0.02 0.51
8:52 pm 20:52 Mostly Cloudy 74 23.3 71 21.7 91 91 S 7 11 29.94 1014 10 16 0.00 0.00
9:52 pm 21:52 Mostly Cloudy 74 23.3 71 21.7 91 91 S 6 9 29.94 1014 10 16 0.00 0.00
10:52 pm 22:52 Partly Cloudy 75 23.9 70 21.1 84 84 S 8 13 29.89 1012 10 16 0.00 0.00
11:52 pm 23:52 Mostly Clear 75 23.9 70 21.1 84 84 NNW 7 11 29.93 1014 10 16 0.00 0.00

Powered by AerisWeather